Wind_Speed
33 29 26 23 24 22 20 19 19 20 20 20 20 19 19 17 18 19 19 18 18 20 19 20 21 22 20 20 22 19 16 16 14 12 12 12 11 11 13 12 10 8 8 7 7 8 10
35 34 31 29 25 25 23 21 21 22 22 21 22 21 21 22 24 22 19 19 20 22 21 22 22 22 21 20 21 19 17 17 15 14 14 13 11 12 12 11 8 6 5 4 5 5 5
38 37 35 32 27 27 27 24 24 24 24 24 23 23 21 22 22 23 24 22 23 22 23 23 23 23 21 20 19 19 18 17 16 16 15 13 12 12 12 11 8 6 6 6 7 6 7
40 37 34 31 28 28 28 28 27 26 26 25 28 24 24 23 22 23 22 22 23 23 24 24 23 22 20 20 18 19 19 18 17 16 16 15 13 12 13 10 10 9 8 8 9 8 9
38 36 32 31 30 30 30 29 30 28 27 26 27 25 25 24 24 23 23 24 23 24 24 24 23 21 20 20 19 19 20 19 18 17 17 16 15 14 14 12 11 11 10 9 10 9 9
37 33 30 31 31 32 31 31 30 30 28 27 26 27 27 25 25 24 24 24 24 24 24 23 22 20 19 19 18 18 18 18 17 17 18 18 16 15 15 15 13 11 12 10 9 8 9
36 31 27 29 32 31 31 31 30 30 30 28 27 27 26 27 26 25 25 24 24 25 23 22 20 19 18 18 17 18 18 18 18 19 20 19 18 18 20 17 17 16 15 15 13 12 12
30 26 27 28 31 28 34 30 29 31 31 29 28 28 26 27 27 26 25 25 25 24 22 22 20 18 19 18 17 17 18 19 20 22 20 21 19 21 22 20 20 20 20 20 20 20 21
25 25 27 27 30 31 33 28 21 32 30 29 28 27 26 27 27 27 26 26 25 23 22 21 21 18 18 18 17 19 18 20 21 23 23 22 21 24 24 24 24 24 23 24 26 26 27
23 25 27 28 32 30 28 30 30 26 31 31 29 27 26 27 28 27 26 25 24 22 21 19 20 19 18 19 19 21 21 22 22 23 24 24 22 25 26 26 26 28 27 28 30 31 31
23 24 26 30 35 36 30 34 27 30 30 32 29 27 27 27 28 26 25 23 21 21 20 17 16 16 16 18 18 19 20 20 20 23 25 23 24 27 27 27 28 29 30 31 33 34 35
26 29 31 31 32 34 30 26 26 31 32 28 27 26 25 26 25 24 22 21 20 20 19 17 16 16 17 19 20 22 23 24 24 24 25 25 26 26 26 27 29 30 31 33 35 36 38
29 28 27 26 26 28 29 28 30 29 29 31 26 24 24 25 23 22 21 21 20 19 18 20 19 19 20 20 21 22 23 24 24 25 25 27 26 26 26 28 29 30 31 34 37 36 37
26 23 23 23 23 24 27 27 26 27 26 28 24 23 24 22 21 21 21 21 20 20 21 22 22 22 22 23 23 25 26 26 27 28 29 29 27 27 27 29 30 30 31 33 38 39 39
18 19 21 20 21 22 23 26 26 25 24 23 23 23 22 21 20 21 21 21 21 22 23 24 24 26 24 25 27 27 28 28 28 29 30 31 31 30 30 31 32 32 34 36 38 41 43
17 18 18 17 18 21 22 23 25 22 22 22 22 22 21 21 21 21 22 22 23 24 25 25 25 27 25 25 27 27 27 26 27 28 30 31 33 32 31 32 33 35 37 37 37 41 44
17 15 18 17 20 22 23 25 24 20 21 22 21 21 20 21 21 22 22 23 24 25 26 26 26 27 26 25 26 27 28 27 28 29 30 31 33 34 34 34 36 37 39 40 42 43 44
25 18 23 26 22 23 28 26 21 22 21 21 21 19 20 21 22 22 22 23 24 25 27 28 31 30 29 30 31 31 30 30 30 30 32 34 37 38 38 38 37 37 37 38 39 41 42
24 23 25 22 22 21 29 25 22 21 22 22 24 24 21 22 21 22 24 28 28 25 25 27 28 28 28 28 30 29 29 30 33 35 35 34 36 37 38 37 36 37 36 36 38 40 41
19 17 17 18 20 21 22 22 23 21 18 22 25 24 25 26 28 29 31 24 20 21 23 25 25 26 27 28 29 30 29 31 31 32 32 33 32 33 34 36 37 37 38 38 40 42 40
10 10 16 15 20 21 17 18 17 18 21 29 33 32 31 33 29 24 18 18 21 24 26 27 27 28 28 28 29 29 30 29 29 30 30 32 33 34 34 35 38 39 41 40 40 41 47
14 14 17 21 17 16 18 21 18 16 21 22 23 23 21 18 16 18 21 23 24 24 24 24 25 25 26 26 26 27 28 30 30 31 31 33 36 37 38 39 41 44 46 46 47 48 50
11 21 15 15 13 17 18 17 21 18 13 10 12 14 16 17 19 21 23 23 23 23 23 24 25 26 26 27 28 29 29 31 33 34 36 38 40 43 46 45 46 48 46 48 49 49 51
12 11 20 18 18 17 19 21 14 11 11 12 13 15 17 19 21 22 23 23 23 23 24 25 26 27 27 28 29 30 31 33 35 37 39 41 41 44 46 48 50 49 50 51 52 52 53
4 4 7 11 11 13 13 13 12 13 14 14 16 18 19 19 20 20 21 22 23 23 23 25 25 27 28 29 31 32 33 35 35 38 38 40 42 46 49 49 50 50 53 54 56 56 58
5 5 7 10 12 13 14 16 16 13 13 15 16 17 18 18 19 20 20 21 22 24 25 26 28 29 30 31 32 34 37 38 39 42 42 43 45 49 52 55 57 55 58 59 62 65 66
12 14 15 15 16 17 16 13 12 11 13 13 14 15 16 16 19 20 22 23 24 26 26 27 29 30 32 35 36 38 40 42 45 48 49 51 54 54 56 60 61 61 64 66 69 69 68
17 17 17 18 15 9 11 13 14 14 12 13 15 18 19 19 21 24 25 25 26 29 31 31 34 36 40 42 44 46 49 49 52 53 54 56 58 58 61 63 66 68 69 69 71 71 71
17 17 14 14 14 12 12 12 8 10 13 16 19 21 23 25 26 27 28 31 33 33 35 39 42 45 46 47 48 49 50 53 55 57 57 59 58 58 60 64 67 70 70 72 72 71 69
Wind_Direction
300 304 300 295 292 288 286 274 255 245 240 236 234 230 233 230 230 235 241 248 257 268 272 276 277 275 281 280 276 272 271 267 261 263 267 270 282 291 288 288 286 286 283 285 289 287 281
295 296 298 296 285 279 275 272 253 243 240 235 236 233 232 227 238 249 247 253 258 264 271 275 278 281 282 277 273 268 267 267 260 259 260 264 276 286 283 280 281 278 287 300 296 290 286
293 293 292 289 281 274 269 263 253 243 238 238 241 237 233 232 232 236 243 251 259 268 275 278 282 282 279 273 269 265 262 265 259 258 256 260 272 278 278 275 274 270 276 280 273 270 268
292 291 286 278 269 259 259 257 250 239 237 235 235 240 236 235 237 240 247 255 264 271 278 282 283 281 276 271 268 262 259 264 255 255 257 257 263 270 268 269 266 265 270 274 277 270 269
291 286 280 269 260 252 252 250 248 238 236 235 233 239 238 236 238 243 250 257 266 273 281 286 284 278 273 271 268 262 258 260 252 255 255 253 255 264 262 261 261 266 272 269 266 275 272
288 280 277 265 258 251 246 248 245 238 234 234 235 231 242 239 241 246 252 260 268 276 281 281 279 275 271 272 268 262 258 254 251 254 254 252 252 258 257 258 256 262 262 268 257 254 270
285 278 267 260 256 251 251 249 246 241 235 233 233 235 234 240 243 248 255 264 272 277 279 276 274 271 264 267 267 264 257 252 251 252 253 256 252 251 256 256 256 260 263 264 260 262 264
279 270 261 256 255 248 250 238 246 243 236 232 233 234 237 241 247 252 260 267 274 275 274 270 268 264 260 264 268 266 260 254 251 254 257 256 252 254 257 256 257 261 266 269 272 273 271
274 267 258 251 251 248 251 253 250 243 236 234 236 236 239 245 249 256 263 269 270 271 269 270 268 262 260 260 263 265 262 258 255 255 257 257 255 256 257 257 259 261 265 268 271 270 273
270 262 253 247 253 248 242 245 248 250 233 232 236 238 242 248 253 259 263 266 268 268 267 266 264 263 261 261 262 262 262 261 257 258 259 258 259 258 258 259 263 265 266 267 270 273 274
273 256 248 252 253 249 250 242 240 245 227 234 234 239 244 249 255 259 261 262 262 264 268 262 260 258 257 258 260 260 262 262 261 261 262 265 260 258 260 262 262 264 265 268 270 272 275
276 268 262 260 259 256 255 238 237 244 223 232 235 241 246 252 255 259 260 261 261 262 263 258 258 256 257 260 262 264 265 266 265 265 266 266 265 263 264 264 265 267 268 269 271 274 276
275 271 263 256 257 252 246 243 238 242 223 225 239 242 247 251 254 256 256 257 259 260 263 261 263 263 263 263 265 265 266 267 267 266 267 266 266 265 266 265 266 268 270 273 275 276 279
267 259 256 257 251 251 246 252 248 237 220 221 237 241 244 245 248 250 252 255 257 260 259 263 266 267 268 267 265 266 265 267 269 271 271 270 268 270 270 270 271 272 273 275 278 282 284
264 257 257 257 242 242 252 256 247 213 219 226 237 239 241 242 245 249 252 255 256 258 263 266 269 271 273 273 272 270 270 270 272 272 273 274 273 271 272 273 274 273 273 274 276 278 281
260 260 257 251 250 249 254 256 222 210 222 230 233 237 241 244 247 250 254 256 258 260 264 267 270 273 275 275 276 276 275 277 274 273 274 275 277 276 275 274 275 276 277 277 278 279 280
253 266 253 247 251 255 252 237 204 213 223 228 234 238 243 248 251 253 257 261 263 265 269 273 275 278 280 279 278 278 279 277 276 276 274 274 275 278 278 280 280 279 277 277 279 280 282
265 264 260 255 258 254 231 215 210 215 220 229 232 237 244 251 254 258 261 264 265 270 273 277 279 278 275 277 279 275 276 277 277 276 277 277 278 278 279 279 280 279 280 279 279 281 279
270 271 262 246 254 238 223 208 214 219 230 231 237 239 247 250 255 258 265 267 270 273 271 273 273 271 274 277 279 278 276 276 277 279 280 280 279 281 280 280 279 280 280 281 282 282 283
271 251 233 230 221 219 215 215 213 223 234 234 238 239 246 252 259 259 276 264 264 271 274 274 275 277 276 277 279 280 278 277 278 279 279 280 282 281 283 283 282 285 285 285 284 285 287
240 210 212 217 217 222 207 210 215 236 251 249 252 249 250 260 263 261 259 266 273 275 274 276 278 277 277 277 278 278 279 280 280 280 281 281 281 281 282 283 282 282 283 285 288 289 286
183 198 221 218 212 236 233 236 247 252 251 258 255 255 251 253 261 266 269 272 276 277 274 274 274 273 274 275 277 278 278 280 282 284 286 285 285 285 285 287 287 284 286 291 289 288 288
211 212 205 196 209 227 245 247 250 253 252 252 252 256 260 266 268 270 271 272 272 273 273 274 274 275 277 279 280 281 283 284 286 287 288 289 291 290 289 289 287 286 288 287 288 287 286
246 244 224 233 240 250 251 251 241 232 243 251 259 265 268 269 269 270 271 270 270 271 273 275 277 279 282 284 285 287 289 290 292 294 295 297 296 294 293 292 291 293 292 292 290 289 287
230 216 226 235 239 241 242 230 234 240 246 253 262 266 268 266 266 267 268 272 277 280 285 288 290 291 293 295 294 294 295 294 295 294 296 297 296 295 294 294 294 294 291 290 288 287 287
215 238 270 267 261 250 239 238 238 247 260 264 263 267 269 270 274 276 279 284 287 290 292 293 296 297 297 298 296 297 297 298 298 298 300 299 297 296 295 292 294 296 293 291 289 288 289
270 268 270 266 254 241 246 254 260 260 261 264 267 273 278 286 286 287 288 290 291 292 294 297 298 296 297 297 297 297 297 299 300 300 302 301 300 299 295 293 295 294 292 291 290 293 290
269 275 274 267 252 241 244 247 247 256 260 274 283 290 292 291 290 289 288 288 290 293 298 299 298 300 300 300 300 300 299 299 299 301 301 300 298 298 297 296 295 294 293 292 293 293 292
258 261 257 256 267 277 279 269 292 300 293 291 292 292 292 292 292 292 293 293 297 298 301 303 304 303 301 299 297 297 297 297 299 300 299 297 297 296 295 294 295 296 296 296 296 295 294
Height
5777 5776 5776 5775 5775 5774 5774 5774 5775 5775 5776 5777 5780 5781 5783 5784 5785 5786 5788 5789 5788 5789 5789 5790 5790 5791 5789 5790 5788 5788 5787 5787 5787 5786 5787 5787 5787 5786 5786 5785 5784 5783 5782 5781 5780 5780 5780
5771 5770 5770 5769 5769 5768 5768 5769 5769 5771 5773 5773 5775 5777 5778 5779 5781 5781 5782 5783 5785 5786 5786 5786 5786 5785 5784 5784 5783 5784 5783 5783 5783 5782 5784 5783 5783 5783 5783 5783 5782 5781 5780 5779 5778 5778 5778
5765 5763 5762 5762 5762 5763 5763 5762 5763 5765 5767 5769 5770 5772 5773 5775 5776 5777 5779 5780 5781 5781 5781 5781 5780 5780 5779 5780 5778 5778 5778 5779 5778 5779 5779 5780 5780 5780 5780 5780 5779 5778 5778 5777 5777 5777 5776
5756 5754 5753 5753 5753 5753 5754 5756 5757 5758 5760 5763 5766 5767 5769 5770 5771 5773 5774 5775 5776 5776 5776 5776 5775 5775 5774 5774 5773 5773 5774 5774 5774 5774 5775 5776 5776 5776 5776 5776 5776 5775 5775 5775 5774 5775 5774
5747 5745 5744 5744 5745 5745 5747 5748 5751 5752 5754 5756 5760 5762 5764 5765 5766 5768 5769 5770 5770 5771 5770 5770 5770 5769 5769 5769 5768 5769 5769 5769 5770 5770 5771 5772 5772 5772 5773 5773 5773 5772 5772 5772 5772 5772 5771
5737 5736 5735 5736 5737 5738 5739 5742 5744 5746 5748 5750 5753 5756 5758 5759 5761 5762 5763 5764 5765 5765 5765 5764 5764 5765 5764 5764 5763 5764 5764 5764 5765 5766 5767 5767 5768 5769 5768 5769 5769 5768 5768 5768 5769 5769 5768
5728 5727 5727 5728 5729 5730 5733 5735 5737 5740 5742 5744 5747 5750 5752 5754 5755 5756 5758 5759 5760 5760 5758 5758 5759 5759 5758 5759 5759 5759 5759 5760 5760 5761 5762 5762 5765 5763 5763 5765 5764 5763 5764 5764 5765 5765 5764
5719 5719 5719 5720 5721 5723 5723 5726 5730 5733 5736 5738 5741 5743 5746 5748 5750 5751 5752 5753 5753 5754 5753 5752 5753 5753 5753 5754 5755 5754 5754 5756 5756 5756 5758 5758 5759 5758 5759 5760 5759 5759 5759 5759 5759 5759 5758
5711 5711 5712 5712 5714 5716 5716 5720 5724 5724 5730 5732 5735 5738 5740 5742 5744 5745 5746 5747 5747 5746 5747 5747 5747 5748 5749 5749 5749 5749 5750 5750 5751 5751 5752 5753 5754 5753 5753 5753 5753 5753 5754 5753 5753 5752 5751
5704 5703 5705 5705 5707 5710 5710 5715 5717 5719 5723 5727 5729 5732 5734 5736 5739 5739 5740 5740 5740 5741 5742 5744 5742 5743 5743 5743 5745 5743 5744 5746 5746 5746 5746 5747 5748 5747 5747 5747 5747 5747 5747 5746 5745 5744 5744
5695 5696 5697 5699 5701 5702 5704 5707 5709 5713 5716 5720 5722 5725 5728 5730 5732 5733 5734 5734 5735 5736 5737 5738 5737 5737 5737 5739 5740 5739 5739 5739 5740 5740 5741 5742 5741 5741 5741 5740 5740 5741 5740 5739 5738 5736 5735
5689 5689 5690 5690 5692 5695 5697 5699 5702 5706 5708 5713 5716 5719 5721 5723 5725 5727 5727 5728 5729 5732 5731 5732 5732 5732 5733 5733 5733 5734 5734 5734 5734 5735 5734 5734 5735 5735 5734 5734 5733 5733 5733 5731 5730 5729 5727
5681 5680 5681 5683 5684 5688 5692 5694 5696 5699 5702 5705 5709 5712 5715 5717 5719 5720 5721 5723 5725 5725 5727 5727 5727 5727 5727 5728 5727 5727 5727 5727 5728 5728 5728 5727 5727 5727 5727 5726 5726 5726 5726 5723 5722 5721 5721
5672 5673 5675 5677 5679 5682 5685 5687 5689 5691 5696 5700 5703 5706 5709 5711 5713 5715 5716 5718 5719 5720 5720 5720 5721 5721 5722 5722 5722 5721 5721 5721 5721 5721 5720 5720 5722 5720 5720 5720 5719 5719 5718 5717 5712 5711 5711
5668 5668 5669 5671 5673 5677 5679 5681 5683 5686 5690 5694 5698 5701 5703 5705 5707 5709 5711 5712 5713 5714 5714 5714 5714 5714 5715 5715 5714 5714 5714 5714 5714 5713 5713 5711 5712 5713 5713 5712 5712 5711 5709 5708 5705 5703 5700
5663 5664 5665 5667 5669 5672 5674 5675 5677 5682 5686 5690 5693 5696 5698 5700 5701 5703 5705 5706 5707 5707 5708 5708 5708 5707 5708 5707 5706 5706 5705 5706 5706 5706 5704 5704 5702 5704 5704 5703 5703 5701 5699 5698 5696 5693 5691
5658 5659 5661 5663 5664 5666 5668 5670 5672 5677 5682 5685 5688 5690 5692 5694 5695 5698 5699 5699 5700 5700 5700 5700 5700 5699 5699 5699 5699 5698 5697 5698 5697 5697 5696 5695 5695 5695 5694 5694 5692 5691 5689 5687 5685 5683 5681
5654 5655 5655 5657 5658 5660 5662 5665 5668 5673 5676 5680 5683 5685 5686 5688 5690 5691 5692 5692 5693 5693 5692 5692 5692 5692 5692 5691 5690 5690 5689 5688 5688 5688 5687 5686 5684 5683 5683 5682 5680 5679 5677 5676 5673 5673 5670
5648 5647 5648 5650 5652 5654 5657 5661 5665 5668 5671 5674 5677 5679 5680 5681 5683 5684 5684 5685 5684 5684 5684 5684 5683 5684 5683 5683 5682 5681 5681 5680 5678 5677 5676 5676 5674 5673 5671 5672 5670 5668 5667 5665 5662 5660 5659
5641 5641 5642 5645 5649 5653 5657 5660 5663 5666 5668 5670 5671 5673 5674 5675 5676 5677 5677 5676 5676 5677 5677 5676 5676 5675 5675 5674 5673 5672 5672 5670 5669 5668 5666 5665 5665 5663 5663 5660 5659 5658 5655 5653 5649 5648 5647
5635 5638 5642 5645 5649 5651 5654 5657 5659 5660 5662 5664 5665 5667 5668 5668 5669 5669 5670 5670 5670 5670 5669 5669 5668 5667 5666 5666 5665 5664 5662 5662 5661 5659 5658 5656 5655 5653 5652 5650 5648 5647 5644 5641 5639 5637 5631
5635 5638 5640 5643 5646 5649 5651 5652 5654 5655 5656 5658 5659 5660 5660 5661 5662 5662 5663 5663 5663 5662 5661 5660 5660 5659 5658 5658 5657 5656 5655 5653 5652 5650 5648 5645 5643 5642 5641 5638 5636 5635 5632 5629 5626 5624 5619
5634 5636 5639 5641 5644 5645 5647 5649 5650 5650 5652 5652 5653 5654 5655 5656 5656 5656 5656 5655 5655 5654 5654 5653 5653 5652 5651 5650 5649 5647 5645 5644 5643 5640 5638 5635 5632 5628 5626 5624 5622 5623 5621 5615 5612 5609 5604
5633 5635 5637 5638 5640 5642 5643 5644 5645 5646 5647 5648 5649 5650 5650 5650 5651 5650 5650 5649 5648 5648 5647 5646 5645 5644 5643 5641 5639 5638 5635 5633 5631 5628 5625 5622 5618 5614 5611 5607 5607 5606 5602 5598 5593 5591 5586
5630 5631 5634 5636 5637 5637 5638 5640 5641 5641 5642 5643 5644 5645 5644 5644 5644 5644 5644 5643 5642 5641 5640 5638 5637 5635 5634 5632 5630 5628 5626 5623 5620 5618 5614 5611 5606 5600 5595 5593 5593 5593 5585 5581 5575 5574 5568
5629 5630 5632 5633 5633 5633 5634 5635 5635 5636 5637 5638 5638 5638 5639 5639 5638 5638 5637 5636 5635 5633 5632 5631 5629 5627 5624 5622 5619 5617 5614 5610 5608 5605 5602 5597 5592 5588 5580 5574 5572 5574 5565 5560 5554 5551 5548
5627 5628 5628 5629 5629 5629 5629 5630 5630 5631 5632 5633 5633 5633 5633 5633 5632 5632 5630 5629 5628 5626 5624 5622 5620 5618 5615 5612 5609 5606 5603 5599 5595 5590 5586 5580 5573 5569 5561 5551 5552 5549 5543 5538 5532 5531 5526
5623 5624 5625 5624 5625 5624 5625 5625 5625 5626 5627 5628 5628 5628 5627 5626 5626 5625 5623 5621 5619 5617 5615 5613 5611 5608 5604 5600 5596 5592 5588 5584 5579 5575 5569 5564 5555 5552 5542 5533 5528 5526 5520 5519 5511 5505 5501
5621 5621 5621 5621 5620 5621 5622 5622 5623 5624 5623 5623 5623 5623 5621 5620 5619 5617 5615 5612 5610 5607 5604 5601 5597 5592 5588 5584 5580 5575 5571 5566 5563 5558 5552 5546 5541 5536 5528 5519 5507 5502 5500 5495 5489 5483 5478